Home   Weather   Lampertheim   Past weeks

Flag for Germany Past Weather in Lampertheim, Hesse, Germany — Yesterday and Last 2 Weeks

Now
52 °F

Passing clouds.


Feels Like: 48 °F
Forecast: 31 / 62 °F
Wind: 10 mph from Northwest

Location: Mannheim City

Current Time: Apr 23, 2017 at 6:00:29 pm

Latest Report: Apr 23, 2017 at 5:20 pm


Visibility: N/A

Pressure: 30.24 "Hg

Humidity: 35%

Dew Point: 25 °F

Location of LampertheimLocation

Past Weather in Lampertheim — Graph

°F

Lampertheim Temperature Yesterday

Maximum temperature yesterday: 55 °F (at 10:50 am)
Minimum temperature yesterday: 50 °F (at 12:50 pm)
Average temperature yesterday: 52 °F

High & Low Weather Summary for the Past Weeks

 TemperatureHumidityPressure
High61 °F (Apr 21, 3:20 pm)93% (Apr 20, 5:50 am)30.60 "Hg (Apr 20, 5:50 am)
Low28 °F (Apr 20, 5:50 am)28% (Apr 21, 12:50 pm)30.21 "Hg (Apr 22, 11:50 am)
Average48 °F50%30.41 "Hg
* Reported Apr 19 9:20 am — Apr 23 4:50 pm, Lampertheim, Weather by CustomWeather, © 2017

Note: Actual official high and low records may vary slightly from our data, if they occured in-between our weather recording intervals... More about our weather records

Advertising

Lampertheim Weather History for the Previous 24 Hours

Scroll right to see more
 ConditionsComfort  
Time TempWeatherWind HumidityBarometerVisibility
4:50 pm
Sun, Apr 23
52 °FPassing clouds.9 mph35%30.24 "HgN/A
4:20 pm52 °FScattered clouds.8 mph35%30.24 "HgN/A
3:20 pm50 °FPassing clouds.8 mph40%30.27 "HgN/A
2:50 pm50 °FPassing clouds.12 mph43%30.27 "HgN/A
2:20 pm48 °FPassing clouds.10 mph43%30.27 "HgN/A
1:50 pm50 °FPassing clouds.9 mph40%30.27 "HgN/A
1:20 pm48 °FPartly sunny.8 mph46%30.27 "HgN/A
12:50 pm48 °FPartly sunny.9 mph46%30.30 "HgN/A
12:20 pm48 °FBroken clouds.7 mph43%30.30 "HgN/A
11:50 am46 °FBroken clouds.9 mph50%30.30 "HgN/A
11:20 am48 °FPartly sunny.8 mph50%30.30 "HgN/A
10:50 am48 °FPassing clouds.7 mph54%30.30 "HgN/A
10:20 am46 °FPassing clouds.9 mph57%30.30 "HgN/A
9:50 am45 °FPassing clouds.9 mph61%30.30 "HgN/A
9:20 am45 °FScattered clouds.6 mph61%30.30 "HgN/A
8:50 am45 °FPassing clouds.7 mph66%30.30 "HgN/A
8:20 am43 °FScattered clouds.1 mph66%30.30 "HgN/A
7:50 am41 °FSunny.3 mph70%30.30 "Hg10 mi
7:20 am39 °FSunny.3 mph75%30.27 "Hg10 mi
7:50 pm
Sat, Apr 22
52 °FPassing clouds.9 mph44%30.21 "HgN/A
7:20 pm52 °FSunny.15 mph44%30.21 "Hg10 mi
6:50 pm52 °FPassing clouds.14 mph44%30.21 "HgN/A
6:20 pm54 °FPartly sunny.13 mph47%30.21 "HgN/A
Weather by CustomWeather, © 2017

See weather overviewHow to use our weather pages